Location: Elaine Barite Prospect
(34.1431°N, 106.7922°W)
Time: 06:52:28
(UTC+00:00)

SKYMED 2 - Pass Details

Date: 13 December 2025
Orbit: 622 x 623 km, 97.9° (Epoch: 12 January)

Event Time Altitude Azimuth Distance (km) Brightness Sun altitude
Rises 12:12:40 0° 159° (SSE) 2,889 7.5 -22.4°
Reaches altitude 10° 12:14:52 10° 157° (SSE) 1,986 6.6 -22.0°
Maximum altitude 12:19:08 64° 75° (ENE) 692 3.9 -21.1°
Enters shadow 12:22:52 14° 356° (N) 1,771 5.7 -20.4°
